Regional Weather Roundup
Issued by NWS

Home | Current Version | Previous Version | Text Only | Print | Product List | Glossary Off
Versions: 1 2 3 4 5 6 7 8 9 10 11 12 13 14 15 16 17 18 19 20 21 22 23 24 25 26 27

000
ASUS45 KTFX 202210
RWRMT
MONTANA REGIONAL WEATHER ROUNDUP
NATIONAL WEATHER SERVICE GREAT FALLS MT
400 PM MDT SUN AUG 20 2017

NOTE: "FAIR" INDICATES FEW OR NO CLOUDS BELOW 12000 FEET WITH NO
SIGNIFICANT WEATHER AND/OR OBSTRUCTIONS TO VISIBILITY.

MTZ001>007-043-202300-
WEST OF THE DIVIDE

CITY           SKY/WX    TMP DP  RH WIND       PRES   REMARKS
KALISPELL      PTSUNNY   78  39  24 SW9       30.01F
MISSOULA       PTSUNNY   77  34  21 S9G20     30.02F
BUTTE          CLOUDY    74  25  16 VRB3      30.11F
MULLAN PASS    CLOUDY    64  34  32 CALM      30.20F
ANACONDA         N/A     72  34  25 NE8       30.09F
DEER LODGE       N/A     73  34  23 E7        30.10F
EUREKA           N/A     79  34  19 MISG      30.00F
HAMILTON         N/A     75  36  23 N5        30.05F
LIBBY            N/A     77  36  22 SW3       30.00F
PLAINS           N/A     81  41  24 W5        30.02
RONAN            N/A     77  37  23 S1        30.08F
$$

MTZ008-052>055-202300-
SOUTHWEST MONTANA

CITY           SKY/WX    TMP DP  RH WIND       PRES   REMARKS
BOZEMAN        SUNNY     79  28  15 VRB6      30.05F
DILLON         CLOUDY    78  31  17 N5        30.06F
W YELLOWSTONE  CLOUDY    73  32  21 CALM      30.16F
ENNIS          CLOUDY    79  19  11 NE5       30.13F
THREE FORKS      N/A     80  28  15 NW1       30.02F
TWIN BRIDGES     N/A     77  33  20 S1        30.05F
$$

MTZ009-010-012-014-046-048-049-054-202300-
EAST SLOPES AND CENTRAL MONTANA

CITY           SKY/WX    TMP DP  RH WIND       PRES   REMARKS
CUT BANK       CLOUDY    76  26  15 W14       30.00F
GREAT FALLS    CLOUDY    75  20  12 N3        30.00F
MALMSTROM AFB  CLOUDY    75  21  13 W7        30.00F
HELENA         CLOUDY    81  22  11 W13       30.03F
AUGUSTA          N/A     76  24  14 NW13      30.03F
BOWMANS CRNR     N/A     76  26  15 W10G18    30.00F
CHOTEAU          N/A     81  25  12 NW13G23   30.02S
CONRAD           N/A     78  32  18 W15       30.02F
FAIRFIELD        N/A     77  24  14 N12       29.99F
POWER            N/A     76  23  14 NE3       29.99F
RAYNESFORD     PTSUNNY   74  28  18 NW12      30.02F
ULM              N/A     77  25  14 NE8       29.99F
$$

MTZ011-013-016-021-045-047-050-051-202300-
NORTH CENTRAL MONTANA

CITY           SKY/WX    TMP DP  RH WIND       PRES   REMARKS
HAVRE          CLOUDY    79  29  16 W15G24    29.94S
LEWISTOWN      CLOUDY    79  34  19 N12G22    30.00F
N BAR RANCH    PTSUNNY   77  36  22 N6G12     30.03S
CHINOOK          N/A     79  36  21 W10G22    29.92S
DENTON           N/A     76  33  20 N13G20    29.96F
GEYSER         PTSUNNY   75  24  15 NW17G23   30.01F
GRASS RANGE      N/A     78  35  20 NE16      29.95F
JUDITH GAP       N/A     77  33  20 N15       30.01F
WINIFRED         N/A     75  34  22 N14       29.99F
$$

MTZ017>020-022>027-061-062-202300-
NORTHEAST MONTANA

CITY           SKY/WX    TMP DP  RH WIND       PRES   REMARKS
GLASGOW        PTSUNNY   80  35  19 S12G21    29.92F
JORDAN           N/A     81  36  19 S13G20    29.93F
WOLF POINT     SUNNY     83  35  18 SE9       29.93F
MALTA          SUNNY     82  36  18 W17       29.89F
PLENTYWOOD       N/A     77  28  16 S13       29.97F
POPLAR           N/A     81  36  19 S10       29.95F
SCOBEY           N/A     77  35  21 S15       29.95
$$

MTZ028>42-056>058-202300-
SOUTHCENTRAL AND SOUTHEAST MONTANA

CITY           SKY/WX    TMP DP  RH WIND       PRES   REMARKS
BAKER          CLOUDY    81  36  19 SE15      30.00F
BILLINGS       MOSUNNY   81  40  23 VRB3      29.96F
LIVINGSTON     SUNNY     83  23  11 W17G25    30.02F
MILES CITY     SUNNY     87  37  17 SE9G20    29.90F
BIG TIMBER     SUNNY     82  21  10 NW18G28   30.03F
EKALAKA          N/A     81  40  23 SE13      29.97
HARLOWTON        N/A     80  25  13 MISG      30.01F
LAUREL           N/A     80  43  27 E1        29.97F
$$

REGIONAL REPORTS...DAKOTAS

CITY           SKY/WX    TMP DP  RH WIND       PRES   REMARKS
WILLISTON      SUNNY     79  34  19 CALM      29.99F
MINOT          SUNNY     78  36  21 NW3       29.99F
DICKINSON      CLOUDY    72  44  36 E7        30.02F
BEACH          PTSUNNY   73  37  27 SE13      30.04F
CROSBY           N/A     77  27  15 SW6       29.98F
TIOGA            N/A     73  32  21 CALM      30.02F
BISMARCK       LGT RAIN  68  52  56 S5        30.04R
GRAND FORKS    MOSUNNY   79  47  32 NW9       29.97R
FARGO          CLOUDY    75  48  38 W7        29.99S
BUFFALO SD       N/A     82  36  19 SE22G30   29.93F
RAPID CITY     SUNNY     81  51  35 S13       30.01F
$$

REGIONAL REPORTS...WYOMING/IDAHO/WASHINGTON

CITY           SKY/WX    TMP DP  RH WIND       PRES   REMARKS
GILLETTE       SUNNY     90  33  13 S22       29.93F
SHERIDAN       SUNNY     87  42  20 NW7       29.95F
BUFFALO WY     SUNNY     87  35  15 N15       29.99F
CODY           SUNNY     76  43  30 N8        30.04F
YELLOWSTONE LA   N/A     71  22  15 W8        30.24F
IDAHO FALLS    SUNNY     83  32  16 S13G20    30.05F
SALMON         CLOUDY    79  36  21 NW7       30.02F
BOISE          SUNNY     85  35  16 NW13G23   29.99F
SPOKANE        PTSUNNY   78  37  22 S12       30.05F
$$

REGIONAL REPORTS...ALBERTA

CITY           SKY/WX    TMP DP  RH WIND       PRES   REMARKS
EDMONTON       MOSUNNY   64  45  48 W15G21    29.94F
CALGARY        CLOUDY    68  36  30 N7        29.96F
LETHBRIDGE     PTSUNNY   73  32  21 E8        29.95F
MEDICINE HAT   CLOUDY    77  34  20 NW16      29.92S
$$

REGIONAL REPORTS...SASKATCHEWAN

CITY           SKY/WX    TMP DP  RH WIND       PRES   REMARKS
SWIFT CURRENT  PTSUNNY   77  36  22 S12G22    29.88F
REGINA         PTSUNNY   70  36  28 S3        29.97F
SASKATOON      PTSUNNY   68  43  40 W8G17     29.94F
$$




USA.gov is the U.S. government's official web portal to all federal, state and local government web resources and services.